Time,TemperatureF,DewpointF,PressureIn,WindDirection,WindDirectionDegrees,WindSpeedMPH,WindSpeedGustMPH,Humidity,HourlyPrecipIn,Conditions,Clouds,dailyrainin,SolarRadiationWatts/m^2,SoftwareType,DateUTC
2013-02-12 00:01:00,24.0,16.0,-100.00,ESE,110,2.0,4.0,70,0.00,,,-99.99,0.000000,,2013-02-12 07:01:00,
2013-02-12 00:11:00,24.0,16.0,-100.00,ESE,110,2.0,4.0,70,0.00,,,-99.99,0.000000,,2013-02-12 07:11:00,
2013-02-12 00:21:00,24.0,16.0,-100.00,ESE,110,2.0,4.0,70,0.00,,,-99.99,0.000000,,2013-02-12 07:21:00,
2013-02-12 00:31:00,24.0,16.0,-100.00,ESE,110,2.0,4.0,70,0.00,,,-99.99,0.000000,,2013-02-12 07:31:00,
2013-02-12 01:01:00,23.0,16.0,-100.00,ESE,104,0.0,3.0,73,0.00,,,0.00,0.000000,,2013-02-12 08:01:00,
2013-02-12 01:11:00,23.0,16.0,-100.00,ESE,104,0.0,3.0,73,0.00,,,0.00,0.000000,,2013-02-12 08:11:00,
2013-02-12 01:21:00,23.0,16.0,-100.00,ESE,104,0.0,3.0,73,0.00,,,0.00,0.000000,,2013-02-12 08:21:00,
2013-02-12 01:31:00,23.0,16.0,-100.00,ESE,104,0.0,3.0,73,0.00,,,0.00,0.000000,,2013-02-12 08:31:00,
2013-02-12 02:01:00,22.0,16.0,-100.00,WSW,242,1.0,2.0,76,0.00,,,0.00,0.000000,,2013-02-12 09:01:00,
2013-02-12 02:11:00,22.0,16.0,-100.00,WSW,242,1.0,2.0,76,0.00,,,0.00,0.000000,,2013-02-12 09:11:00,
2013-02-12 02:21:00,22.0,16.0,-100.00,WSW,242,1.0,2.0,76,0.00,,,0.00,0.000000,,2013-02-12 09:21:00,
2013-02-12 02:31:00,22.0,16.0,-100.00,WSW,242,1.0,2.0,76,0.00,,,0.00,0.000000,,2013-02-12 09:31:00,
2013-02-12 03:01:00,22.0,14.0,-100.00,ESE,103,4.0,6.0,71,0.00,,,0.00,0.000000,,2013-02-12 10:01:00,
2013-02-12 03:11:00,22.0,14.0,-100.00,ESE,103,4.0,6.0,71,0.00,,,0.00,0.000000,,2013-02-12 10:11:00,
2013-02-12 03:21:00,22.0,14.0,-100.00,ESE,103,4.0,6.0,71,0.00,,,0.00,0.000000,,2013-02-12 10:21:00,
2013-02-12 03:31:00,22.0,14.0,-100.00,ESE,103,4.0,6.0,71,0.00,,,0.00,0.000000,,2013-02-12 10:31:00,
2013-02-12 04:01:00,22.0,15.0,-100.00,East,85,4.0,5.0,75,0.00,,,0.00,0.000000,,2013-02-12 11:01:00,
2013-02-12 04:11:00,22.0,15.0,-100.00,East,85,4.0,5.0,75,0.00,,,0.00,0.000000,,2013-02-12 11:11:00,
2013-02-12 04:21:00,22.0,15.0,-100.00,East,85,4.0,5.0,75,0.00,,,0.00,0.000000,,2013-02-12 11:21:00,
2013-02-12 04:31:00,22.0,15.0,-100.00,East,85,4.0,5.0,75,0.00,,,0.00,0.000000,,2013-02-12 11:31:00,
2013-02-12 04:52:00,23.0,16.0,-100.00,NE,56,1.0,5.0,73,0.00,,,0.00,0.000000,,2013-02-12 11:52:00,
2013-02-12 05:01:00,23.0,16.0,-100.00,NE,56,1.0,5.0,73,0.00,,,0.00,0.000000,,2013-02-12 12:01:00,
2013-02-12 05:11:00,23.0,16.0,-100.00,NE,56,1.0,5.0,73,0.00,,,0.00,0.000000,,2013-02-12 12:11:00,
2013-02-12 05:21:00,23.0,16.0,-100.00,NE,56,1.0,5.0,73,0.00,,,0.00,0.000000,,2013-02-12 12:21:00,
2013-02-12 05:32:00,23.0,16.0,-100.00,NE,56,1.0,5.0,73,0.00,,,0.00,0.000000,,2013-02-12 12:32:00,
2013-02-12 06:01:00,22.0,15.0,-100.00,East,89,4.0,5.0,74,0.00,,,0.00,0.000000,,2013-02-12 13:01:00,
2013-02-12 06:11:00,22.0,15.0,-100.00,East,89,4.0,5.0,74,0.00,,,0.00,0.000000,,2013-02-12 13:11:00,
2013-02-12 06:22:00,22.0,15.0,-100.00,East,89,4.0,5.0,74,0.00,,,0.00,0.000000,,2013-02-12 13:22:00,
2013-02-12 06:31:00,22.0,15.0,-100.00,East,89,4.0,5.0,74,0.00,,,0.00,0.000000,,2013-02-12 13:31:00,
2013-02-12 07:01:00,23.0,15.0,-100.00,NE,50,0.0,4.0,72,0.00,,,0.00,0.000000,,2013-02-12 14:01:00,
2013-02-12 07:11:00,23.0,15.0,-100.00,NE,50,0.0,4.0,72,0.00,,,0.00,0.000000,,2013-02-12 14:11:00,
2013-02-12 07:21:00,23.0,15.0,-100.00,NE,50,0.0,4.0,72,0.00,,,0.00,0.000000,,2013-02-12 14:21:00,
2013-02-12 07:31:00,23.0,15.0,-100.00,NE,50,0.0,4.0,72,0.00,,,0.00,0.000000,,2013-02-12 14:31:00,
2013-02-12 08:01:00,22.0,15.0,-100.00,East,91,2.0,3.0,75,0.00,,,0.00,0.000000,,2013-02-12 15:01:00,
2013-02-12 08:11:00,22.0,15.0,-100.00,East,91,2.0,3.0,75,0.00,,,0.00,0.000000,,2013-02-12 15:11:00,
2013-02-12 08:21:00,22.0,15.0,-100.00,East,91,2.0,3.0,75,0.00,,,0.00,0.000000,,2013-02-12 15:21:00,
2013-02-12 08:32:00,22.0,15.0,-100.00,East,91,2.0,3.0,75,0.00,,,0.00,0.000000,,2013-02-12 15:32:00,
2013-02-12 09:01:00,23.0,15.0,-100.00,East,90,4.0,6.0,72,0.00,,,0.00,17.000000,,2013-02-12 16:01:00,
2013-02-12 09:11:00,23.0,15.0,-100.00,East,90,4.0,6.0,72,0.00,,,0.00,17.000000,,2013-02-12 16:11:00,
2013-02-12 09:22:00,23.0,15.0,-100.00,East,90,4.0,6.0,72,0.00,,,0.00,17.000000,,2013-02-12 16:22:00,
2013-02-12 09:31:00,23.0,15.0,-100.00,East,90,4.0,6.0,72,0.00,,,0.00,17.000000,,2013-02-12 16:31:00,
2013-02-12 09:52:00,26.0,17.0,-100.00,SSE,155,1.0,4.0,68,0.00,,,0.00,107.000000,,2013-02-12 16:52:00,
2013-02-12 10:01:00,26.0,17.0,-100.00,SSE,155,1.0,4.0,68,0.00,,,0.00,107.000000,,2013-02-12 17:01:00,
2013-02-12 10:11:00,26.0,17.0,-100.00,SSE,155,1.0,4.0,68,0.00,,,0.00,107.000000,,2013-02-12 17:11:00,
2013-02-12 10:21:00,26.0,17.0,-100.00,SSE,155,1.0,4.0,68,0.00,,,0.00,107.000000,,2013-02-12 17:21:00,
2013-02-12 10:31:00,26.0,17.0,-100.00,SSE,155,1.0,4.0,68,0.00,,,0.00,107.000000,,2013-02-12 17:31:00,
2013-02-12 11:01:00,28.0,17.0,-100.00,West,268,2.0,4.0,63,0.00,,,0.00,185.000000,,2013-02-12 18:01:00,
2013-02-12 11:11:00,28.0,17.0,-100.00,West,268,2.0,4.0,63,0.00,,,0.00,185.000000,,2013-02-12 18:11:00,
2013-02-12 11:22:00,28.0,17.0,-100.00,West,268,2.0,4.0,63,0.00,,,0.00,185.000000,,2013-02-12 18:22:00,
2013-02-12 11:31:00,28.0,17.0,-100.00,West,268,2.0,4.0,63,0.00,,,0.00,185.000000,,2013-02-12 18:31:00,
2013-02-12 12:02:00,30.0,17.0,-100.00,WSW,250,2.0,5.0,59,0.00,,,0.00,217.000000,,2013-02-12 19:02:00,
2013-02-12 12:11:00,30.0,17.0,-100.00,WSW,250,2.0,5.0,59,0.00,,,0.00,217.000000,,2013-02-12 19:11:00,
2013-02-12 12:21:00,30.0,17.0,-100.00,WSW,250,2.0,5.0,59,0.00,,,0.00,217.000000,,2013-02-12 19:21:00,
2013-02-12 12:31:00,30.0,17.0,-100.00,WSW,250,2.0,5.0,59,0.00,,,0.00,217.000000,,2013-02-12 19:31:00,
2013-02-12 13:01:00,33.0,19.0,-100.00,SW,224,1.0,5.0,56,0.00,,,0.00,180.000000,,2013-02-12 20:01:00,
2013-02-12 13:11:00,33.0,19.0,-100.00,SW,224,1.0,5.0,56,0.00,,,0.00,180.000000,,2013-02-12 20:11:00,
2013-02-12 13:21:00,33.0,19.0,-100.00,SW,224,1.0,5.0,56,0.00,,,0.00,180.000000,,2013-02-12 20:21:00,
2013-02-12 13:31:00,33.0,19.0,-100.00,SW,224,1.0,5.0,56,0.00,,,0.00,180.000000,,2013-02-12 20:31:00,
2013-02-12 14:01:00,34.0,19.0,-100.00,ESE,118,2.0,6.0,53,0.00,,,0.00,194.000000,,2013-02-12 21:01:00,
2013-02-12 14:11:00,34.0,19.0,-100.00,ESE,118,2.0,6.0,53,0.00,,,0.00,194.000000,,2013-02-12 21:11:00,
2013-02-12 14:21:00,34.0,19.0,-100.00,ESE,118,2.0,6.0,53,0.00,,,0.00,194.000000,,2013-02-12 21:21:00,
2013-02-12 14:31:00,34.0,19.0,-100.00,ESE,118,2.0,6.0,53,0.00,,,0.00,194.000000,,2013-02-12 21:31:00,
2013-02-12 15:01:00,37.0,20.0,-100.00,ESE,112,2.0,8.0,50,0.00,,,0.00,255.000000,,2013-02-12 22:01:00,
2013-02-12 15:12:00,37.0,20.0,-100.00,ESE,112,2.0,8.0,50,0.00,,,0.00,255.000000,,2013-02-12 22:12:00,
2013-02-12 15:21:00,37.0,20.0,-100.00,ESE,112,2.0,8.0,50,0.00,,,0.00,255.000000,,2013-02-12 22:21:00,
2013-02-12 15:31:00,37.0,20.0,-100.00,ESE,112,2.0,8.0,50,0.00,,,0.00,255.000000,,2013-02-12 22:31:00,
2013-02-12 16:01:00,38.0,20.0,-100.00,SE,136,2.0,7.0,48,0.00,,,0.00,180.000000,,2013-02-12 23:01:00,
2013-02-12 16:11:00,38.0,20.0,-100.00,SE,136,2.0,7.0,48,0.00,,,0.00,180.000000,,2013-02-12 23:11:00,
2013-02-12 16:21:00,38.0,20.0,-100.00,SE,136,2.0,7.0,48,0.00,,,0.00,180.000000,,2013-02-12 23:21:00,
2013-02-12 16:31:00,38.0,20.0,-100.00,SE,136,2.0,7.0,48,0.00,,,0.00,180.000000,,2013-02-12 23:31:00,
2013-02-12 17:02:00,36.0,20.0,-100.00,NW,312,2.0,5.0,51,0.00,,,0.00,72.000000,,2013-02-13 00:02:00,
2013-02-12 17:11:00,36.0,20.0,-100.00,NW,312,2.0,5.0,51,0.00,,,0.00,72.000000,,2013-02-13 00:11:00,
2013-02-12 17:21:00,36.0,20.0,-100.00,NW,312,2.0,5.0,51,0.00,,,0.00,72.000000,,2013-02-13 00:21:00,
2013-02-12 17:32:00,36.0,20.0,-100.00,NW,312,2.0,5.0,51,0.00,,,0.00,72.000000,,2013-02-13 00:32:00,
2013-02-12 19:11:00,34.0,20.0,-100.00,WNW,295,6.0,11.0,55,0.00,,,0.00,6.000000,,2013-02-13 02:11:00,
2013-02-12 19:21:00,34.0,20.0,-100.00,WNW,295,6.0,11.0,55,0.00,,,0.00,6.000000,,2013-02-13 02:21:00,
2013-02-12 19:31:00,34.0,20.0,-100.00,WNW,295,6.0,11.0,55,0.00,,,0.00,6.000000,,2013-02-13 02:31:00,
2013-02-12 20:01:00,34.0,20.0,-100.00,WNW,287,5.0,13.0,55,0.00,,,0.00,0.000000,,2013-02-13 03:01:00,
2013-02-12 20:11:00,34.0,20.0,-100.00,WNW,287,5.0,13.0,55,0.00,,,0.00,0.000000,,2013-02-13 03:11:00,
2013-02-12 20:21:00,34.0,20.0,-100.00,WNW,287,5.0,13.0,55,0.00,,,0.00,0.000000,,2013-02-13 03:21:00,
2013-02-12 20:31:00,34.0,20.0,-100.00,WNW,287,5.0,13.0,55,0.00,,,0.00,0.000000,,2013-02-13 03:31:00,
2013-02-12 21:01:00,33.0,19.0,-100.00,ENE,65,3.0,8.0,57,0.00,,,0.00,0.000000,,2013-02-13 04:01:00,
2013-02-12 21:11:00,33.0,19.0,-100.00,ENE,65,3.0,8.0,57,0.00,,,0.00,0.000000,,2013-02-13 04:11:00,
2013-02-12 21:21:00,33.0,19.0,-100.00,ENE,65,3.0,8.0,57,0.00,,,0.00,0.000000,,2013-02-13 04:21:00,
2013-02-12 21:31:00,33.0,19.0,-100.00,ENE,65,3.0,8.0,57,0.00,,,0.00,0.000000,,2013-02-13 04:31:00,
2013-02-12 22:01:00,33.0,20.0,-100.00,East,90,6.0,7.0,59,0.00,,,0.00,0.000000,,2013-02-13 05:01:00,
2013-02-12 22:11:00,33.0,20.0,-100.00,East,90,6.0,7.0,59,0.00,,,0.00,0.000000,,2013-02-13 05:11:00,
2013-02-12 22:22:00,33.0,20.0,-100.00,East,90,6.0,7.0,59,0.00,,,0.00,0.000000,,2013-02-13 05:22:00,
2013-02-12 22:31:00,33.0,20.0,-100.00,East,90,6.0,7.0,59,0.00,,,0.00,0.000000,,2013-02-13 05:31:00,
2013-02-12 23:02:00,32.0,21.0,-100.00,ESE,107,8.0,11.0,63,0.00,,,0.00,0.000000,,2013-02-13 06:02:00,
2013-02-12 23:11:00,32.0,21.0,-100.00,ESE,107,8.0,11.0,63,0.00,,,0.00,0.000000,,2013-02-13 06:11:00,
2013-02-12 23:21:00,32.0,21.0,-100.00,ESE,107,8.0,11.0,63,0.00,,,0.00,0.000000,,2013-02-13 06:21:00,
2013-02-12 23:31:00,32.0,21.0,-100.00,ESE,107,8.0,11.0,63,0.00,,,0.00,0.000000,,2013-02-13 06:31:00,